Погода в Донкастере

Великобритания     53°31′15″N   1°08′13″W
темп.,
°C
ветер,
м/с
пор.,
м/с
влажн.,
%
обл.,
%
осадки,
мм/ч
давл.,
гПа
погр.,
м
17 апреля, сб
сб1701:00+4ююв23715 0.0 103193
04:00+3ююв11765 0.0 103125
07:00+3юв117658 0.0 103135
10:00+8вюв1159100 0.0 1031511
13:00+11в224775 0.0 10301331
16:00+12в214053 0.0 10281527
19:00+10вюв34505 0.0 1027555
22:00+5ююв257096 0.0 1028202
18 апреля, вс
вс1801:00+4ю247299 0.0 1027129
04:00+4ююв127194 0.0 102647
07:00+4ююв1168100 0.0 102654
10:00+9юв2153100 0.0 1026451
13:00+12вюв214596 0.0 10251211
16:00+13в21405 0.0 10231613
19:00+12вюв23469 0.0 1024452
22:00+7юв26705 0.0 1025183
19 апреля, пн
пн1901:00+5ююв12774 0.0 102476
04:00+4юв11784 0.0 102318
07:00+4всв11755 0.0 102339
10:00+10вюв12505 0.0 1023506
13:00+13юв23465 0.0 10211225
16:00+15юв334790 0.0 10191786
19:00+12юв3566100 0.0 1019339
22:00+10юв2478100 0.1 1020190
20 апреля, вт
вт2001:00+9юв2382100 0.1 1019151
04:00+9ююв1182100 0.0 101956
07:00+9ююв1179100 0.0 101923
10:00+10юз0170100 0.0 1019167
13:00+13сз2256100 0.2 1020936
16:00+14сз2348100 0.1 10191434
19:00+12ссз3566100 0.4 1020283
22:00+8ссв3891100 0.9 1023556
21 апреля, ср
ср2101:00+7с3694100 1.4 1024442
04:00+6с259053 0.0 1024285
07:00+4с23875 0.0 1026124
10:00+9св23595 0.0 1027710
13:00+13ссв224551 0.0 10261622
16:00+11всв435379 0.0 1027938
19:00+10в335833 0.0 1027782
22:00+6вюв35725 0.0 1029235